Погода в Угловом

Россия / Республика Крым     44°49′14″N   33°36′23″E
темп.,
°C
ветер,
м/с
пор.,
м/с
влажн.,
%
обл.,
%
осадки,
мм/ч
давл.,
гПа
погр.,
м
8 мая, сб
сб800:00+15ююв5665100 0.0 101378
03:00+15ююв5766100 0.0 101290
06:00+15ююв5871100 0.0 101185
09:00+18ююв576180 0.0 101097
12:00+18ююз6857100 0.0 1010137
15:00+15зсз688270 0.0 1012207
18:00+15ссз7986100 0.5 1013378
21:00+13ссв101382100 0.6 1015745
9 мая, вс
вс900:00+12ссв71182100 1.3 1017981
03:00+11с111266100 1.4 1018889
06:00+10с89704 0.0 1021972
09:00+10с9107210 0.0 10231037
12:00+12ссз89585 0.0 10251298
15:00+12сз98585 0.0 10261200
18:00+13сз77545 0.0 1026749
21:00+13ссз89627 0.0 1028595
10 мая, пн
пн1000:00+12с45655 0.0 1028340
03:00+10в44673 0.1 1028146
06:00+10всв44635 0.0 1028160
09:00+12св67575 0.0 1029687
12:00+14ссз56485 0.0 10281081
15:00+14сз675010 0.0 1026784
18:00+15с68535 0.0 1025509
21:00+13с586157 0.0 1025352
11 мая, вт
вт1100:00+12с466975 0.0 1024320
03:00+11св22725 0.0 1022167
06:00+10св23676 0.0 1021255
09:00+12с576580 0.0 1021696
12:00+12с566975 0.0 1020689
15:00+13сз236996 0.0 1018466
18:00+13с4685100 0.2 1018434
21:00+12ссв4486100 0.3 1017380
12 мая, ср
ср1200:00+12св458299 0.1 1016325
03:00+11св677888 0.3 1014315
06:00+9св67835 0.0 1014292
09:00+11с44745 0.0 1013455
12:00+11сз5472100 0.0 1013419
15:00+12зсз44695 0.0 1013528
18:00+12зсз337084 0.0 1013577
21:00+12сз11690 0.0 1013389